Location: Summit Observatory
(39.5293°N, 75.7290°W)
Time: 10:34:15
(UTC-05:00)

XW-2F - Pass Details

Date: 22 October 2019
Orbit: 503 x 523 km, 97.5° (Epoch: 21 November)

Event Time Altitude Azimuth Distance (km) Brightness Sun altitude
Rises 06:29:05 0° 25° (NNE) 2,608 ? -10.5°
Reaches altitude 10° 06:31:26 10° 38° (NE) 1,719 ? -10.1°
Maximum altitude 06:34:34 26° 96° (E) 1,025 ? -9.5°
Drops below altitude 10° 06:37:42 10° 154° (SSE) 1,710 ? -8.9°
Sets 06:40:01 0° 168° (SSE) 2,592 ? -8.4°
